Location: Unspecified
(0.0000°N, 0.0000°E)
Time: 20:36:46
(UTC+00:00)

COSMOS 2467 - Pass Details

Date: 15 June 2023
Orbit: 1492 x 1496 km, 82.5° (Epoch: 27 September)

Event Time Altitude Azimuth Distance (km) Brightness Sun altitude
Rises 21:50:03 0° 322° (NW) 4,615 10.6 -50.7°
Reaches altitude 10° 21:54:16 10° 303° (WNW) 3,638 9.9 -51.5°
Maximum altitude 21:59:23 17° 267° (W) 3,123 9.3 -52.5°
Enters shadow 22:00:11 17° 260° (W) 3,137 9.3 -52.6°
